Temp
-15 -16 -17 -17 -17 -17 -17 -17 -16 -16 -17 -17 -17 -17 -17 -17 -18 -18 -18 -19 -19 -19 -19 -19 -19 -18 -18
-16 -16 -16 -16 -17 -17 -16 -17 -17 -16 -16 -17 -17 -17 -17 -17 -17 -17 -18 -19 -19 -19 -19 -19 -19 -19 -19
-16 -16 -16 -16 -16 -16 -17 -17 -17 -17 -16 -16 -17 -17 -17 -17 -17 -17 -18 -19 -19 -19 -19 -19 -19 -19 -19
-17 -17 -17 -16 -16 -16 -17 -17 -17 -17 -16 -16 -17 -17 -17 -17 -17 -18 -18 -19 -19 -19 -19 -19 -19 -19 -19
-18 -17 -17 -16 -16 -15 -17 -17 -17 -17 -17 -16 -17 -17 -17 -17 -17 -18 -19 -19 -19 -19 -19 -19 -20 -20 -20
-18 -18 -17 -17 -17 -17 -17 -16 -16 -17 -17 -17 -17 -17 -17 -17 -18 -18 -18 -18 -19 -19 -19 -19 -20 -20 -20
-18 -18 -18 -18 -19 -17 -18 -17 -17 -17 -17 -17 -17 -17 -17 -17 -18 -19 -18 -19 -19 -19 -20 -20 -20 -20 -20
-19 -19 -19 -19 -19 -19 -18 -18 -17 -17 -17 -17 -17 -17 -18 -18 -18 -18 -18 -18 -19 -20 -20 -20 -20 -20 -21
-19 -19 -20 -20 -20 -19 -18 -18 -18 -17 -17 -17 -17 -17 -18 -18 -19 -19 -19 -19 -20 -20 -20 -20 -20 -21 -23
-19 -20 -20 -20 -20 -19 -18 -18 -18 -17 -17 -17 -17 -18 -18 -18 -19 -19 -19 -19 -20 -20 -20 -20 -21 -23 -24
-20 -20 -19 -19 -19 -19 -18 -17 -17 -17 -17 -17 -17 -18 -18 -18 -19 -19 -19 -19 -20 -20 -20 -21 -22 -23 -24
-20 -19 -19 -19 -19 -18 -18 -17 -17 -17 -17 -18 -18 -18 -18 -18 -19 -19 -19 -20 -20 -20 -21 -22 -23 -24 -25
-20 -19 -18 -18 -18 -18 -18 -17 -17 -17 -17 -18 -18 -18 -18 -19 -19 -19 -20 -20 -20 -21 -23 -23 -24 -25 -25
-20 -19 -18 -18 -18 -18 -18 -18 -18 -18 -18 -18 -18 -18 -18 -19 -19 -20 -21 -21 -21 -22 -23 -24 -24 -24 -25
-20 -19 -18 -18 -18 -18 -18 -18 -18 -18 -18 -18 -18 -19 -19 -19 -20 -21 -21 -21 -22 -23 -24 -25 -24 -24 -25
-20 -19 -19 -18 -18 -18 -18 -18 -18 -18 -18 -18 -19 -19 -19 -20 -20 -21 -22 -23 -24 -24 -24 -24 -25 -24 -25
-19 -19 -18 -18 -18 -18 -19 -19 -19 -19 -19 -19 -19 -20 -20 -20 -20 -22 -23 -23 -24 -24 -24 -24 -25 -25 -24
Height
5553 5554 5549 5547 5545 5543 5540 5538 5536 5534 5532 5531 5529 5528 5526 5523 5521 5519 5516 5514 5511 5507 5503 5498 5493 5486 5480
5537 5534 5529 5530 5527 5525 5524 5521 5521 5520 5518 5517 5516 5515 5512 5511 5508 5506 5503 5500 5497 5493 5489 5484 5477 5469 5462
5516 5514 5513 5513 5511 5508 5507 5506 5505 5504 5497 5503 5501 5499 5498 5496 5494 5492 5489 5486 5484 5480 5474 5467 5460 5453 5446
5494 5497 5495 5495 5493 5491 5490 5489 5490 5490 5487 5486 5487 5484 5484 5482 5481 5479 5476 5473 5470 5465 5459 5451 5444 5437 5430
5474 5475 5478 5480 5478 5470 5474 5473 5475 5475 5473 5474 5473 5472 5468 5467 5468 5467 5462 5458 5455 5450 5443 5436 5429 5422 5414
5455 5455 5459 5456 5460 5454 5457 5453 5454 5461 5458 5458 5459 5458 5455 5454 5454 5452 5448 5444 5440 5434 5428 5421 5413 5405 5398
5435 5438 5436 5436 5437 5438 5440 5441 5442 5442 5443 5443 5444 5443 5442 5440 5440 5438 5435 5431 5425 5419 5413 5405 5397 5389 5381
5414 5417 5415 5416 5417 5419 5423 5422 5422 5427 5427 5428 5429 5429 5427 5429 5429 5425 5421 5417 5411 5405 5398 5390 5382 5374 5366
5398 5398 5398 5400 5403 5403 5406 5406 5408 5411 5413 5414 5416 5415 5416 5415 5414 5411 5407 5403 5397 5390 5383 5375 5368 5359 5351
5381 5382 5384 5386 5390 5392 5392 5393 5393 5395 5400 5403 5404 5403 5403 5403 5401 5397 5394 5388 5382 5375 5368 5360 5353 5346 5339
5363 5369 5372 5374 5377 5379 5380 5380 5382 5385 5387 5389 5390 5392 5392 5390 5388 5385 5380 5374 5367 5360 5353 5345 5339 5334 5326
5350 5357 5359 5363 5365 5366 5367 5369 5371 5372 5374 5376 5379 5379 5380 5378 5375 5372 5365 5359 5353 5346 5338 5332 5326 5319 5313
5340 5345 5349 5352 5353 5355 5356 5358 5360 5363 5365 5367 5369 5368 5367 5364 5361 5357 5350 5344 5338 5330 5324 5318 5312 5307 5303
5332 5336 5341 5343 5345 5346 5348 5349 5351 5354 5356 5358 5359 5358 5355 5352 5346 5341 5335 5329 5323 5316 5310 5304 5300 5297 5294
5325 5329 5333 5336 5339 5340 5342 5344 5346 5348 5350 5351 5349 5348 5344 5338 5333 5327 5320 5313 5307 5302 5297 5291 5289 5287 5284
5317 5323 5327 5329 5331 5334 5336 5338 5339 5341 5342 5342 5340 5336 5332 5325 5319 5313 5306 5300 5294 5288 5285 5281 5277 5277 5275
5313 5317 5320 5323 5325 5328 5330 5332 5334 5334 5334 5333 5328 5323 5319 5313 5307 5301 5294 5288 5282 5276 5273 5270 5265 5263 5263
Wind_Speed
70 67 63 64 62 55 50 52 50 50 48 49 50 49 50 48 43 50 50 52 53 53 54 57 58 60 59
62 59 57 55 53 52 50 48 50 48 46 50 49 50 54 51 46 48 50 51 51 53 56 57 57 59 60
64 61 56 52 51 51 50 51 51 46 50 50 51 52 58 52 52 48 49 51 52 55 56 55 57 59 60
63 60 58 56 50 53 52 50 50 46 45 53 50 48 55 58 57 46 50 49 52 55 55 57 59 59 60
63 59 59 57 58 60 55 44 45 45 42 47 51 50 52 53 49 44 49 48 53 56 57 60 58 58 59
65 63 59 55 64 63 54 45 47 46 45 44 47 50 48 57 51 47 50 52 56 57 60 60 57 57 61
66 62 59 55 57 54 52 41 46 53 46 43 45 43 46 50 46 45 53 54 58 60 60 58 56 59 61
63 60 56 54 52 49 46 47 45 46 44 47 42 40 41 43 44 53 52 55 60 59 58 56 57 59 58
61 55 54 50 48 44 36 49 46 39 40 41 41 40 40 41 43 47 51 55 55 56 55 55 57 56 51
52 48 47 44 41 38 38 40 42 40 36 42 36 32 41 43 44 49 51 55 54 55 54 55 55 48 48
44 37 36 37 37 35 31 34 35 40 41 41 38 38 40 42 50 51 55 55 53 53 53 53 49 47 48
34 27 21 31 33 29 25 38 39 35 31 30 33 31 37 41 43 50 53 51 51 52 50 47 47 45 34
31 24 18 24 28 27 22 27 31 26 27 28 35 35 38 40 46 48 47 48 50 49 45 46 44 33 28
29 20 21 18 23 14 13 14 16 22 22 27 32 37 38 44 44 45 45 48 48 47 45 43 31 28 29
26 20 22 20 13 6 13 16 14 17 19 26 32 36 40 41 43 43 45 46 45 44 40 31 27 24 24
22 18 20 25 23 21 13 11 15 18 21 26 31 37 38 39 43 43 41 41 42 37 30 31 31 26 28
16 18 20 22 17 21 11 10 15 19 24 28 35 36 37 40 41 39 38 35 34 36 35 33 35 37 33
Wind_Direction
287 291 284 289 287 286 283 284 285 286 279 276 278 272 270 277 280 283 286 286 287 289 292 293 298 297 299
290 288 288 288 287 278 276 279 287 282 282 279 274 266 263 274 277 284 283 284 286 289 291 292 298 300 300
289 290 292 293 288 276 273 277 281 283 272 280 273 274 268 267 273 283 283 282 285 289 292 296 298 299 300
289 289 289 292 286 279 269 277 276 287 280 268 278 267 270 266 274 280 280 283 288 291 295 298 299 299 300
289 288 289 278 285 264 273 272 274 286 281 267 275 273 267 265 273 267 280 290 294 294 296 298 299 300 301
288 287 286 278 269 270 265 275 259 283 283 272 275 266 271 270 265 281 291 291 296 293 295 298 300 301 302
285 284 281 274 271 273 270 265 279 276 274 269 272 269 272 270 269 277 286 289 294 295 297 299 301 302 302
280 279 275 269 268 264 262 267 275 272 268 259 268 266 267 263 266 276 282 288 293 295 299 300 301 302 300
278 275 269 267 265 256 258 267 267 269 268 264 264 263 262 263 278 282 285 289 294 298 299 301 302 299 299
272 266 262 263 258 260 270 272 270 266 258 264 264 275 258 271 269 272 290 299 300 299 300 302 300 299 300
259 250 263 257 255 260 270 265 259 255 256 251 269 263 264 281 278 280 289 299 298 300 301 299 299 301 301
246 252 262 255 257 261 256 258 256 258 258 259 251 256 274 283 278 284 296 298 299 300 298 298 299 302 298
240 247 241 254 254 248 240 256 246 247 254 258 253 263 285 288 290 297 298 299 300 299 297 298 301 298 294
235 252 243 235 240 242 249 232 233 237 249 261 264 274 281 291 299 302 298 299 299 297 298 299 299 294 294
241 243 234 243 219 234 237 234 246 253 262 274 278 279 291 301 301 300 301 299 299 300 300 294 293 292 290
241 230 236 233 239 218 230 249 268 269 276 280 287 297 302 303 304 302 301 301 299 299 294 292 288 286 286
228 235 247 239 235 213 223 256 267 273 284 291 298 307 306 305 304 304 304 303 304 301 297 291 282 281 276